📊 Raw Sensor Data

Showing records 44376 to 44400 of 85,035 total

ID Distance (ft) Battery V Battery A Int Temp (°F) Int Humid (%) Ext Temp (°F) Solar V RSSI SNR Time Stamp
40672 15.7 4.00 0 86 42 81 5.10 -68 7 05/15/2025 12:30 PM
40671 15.7 3.95 0 85 42 84 5.10 -69 7 05/15/2025 12:15 PM
40670 15.7 3.95 0 84 41 80 5.10 -69 8 05/15/2025 12:00 PM
40669 15.8 3.97 0 83 41 84 5.10 -70 7 05/15/2025 11:45 AM
40668 15.8 3.95 0 81 41 83 5.10 -70 8 05/15/2025 11:30 AM
40667 15.8 3.95 0 80 41 76 5.10 -69 8 05/15/2025 11:15 AM
40666 16.0 3.95 0 79 41 76 5.10 -70 8 05/15/2025 11:00 AM
40665 15.9 3.95 0 77 41 76 5.10 -69 8 05/15/2025 10:45 AM
40664 15.9 3.98 0 76 40 74 5.10 -70 8 05/15/2025 10:30 AM
40663 15.9 3.95 0 74 41 72 5.10 -70 8 05/15/2025 10:15 AM
40662 15.9 4.01 0 72 41 72 5.10 -70 8 05/15/2025 10:00 AM
40661 15.9 3.95 0 71 41 69 5.10 -69 8 05/15/2025 09:45 AM
40660 16.0 4.09 0 70 41 69 5.10 -70 8 05/15/2025 09:30 AM
40659 16.0 3.96 0 69 41 73 5.10 -69 8 05/15/2025 09:15 AM
40658 16.0 3.95 0 67 41 67 5.10 -70 7 05/15/2025 09:00 AM
40657 16.1 4.07 0 66 41 65 5.10 -69 8 05/15/2025 08:45 AM
40656 16.1 3.95 0 64 41 66 5.10 -69 8 05/15/2025 08:30 AM
40655 16.1 4.07 0 62 41 68 5.10 -70 8 05/15/2025 08:15 AM
40654 16.1 3.95 0 60 41 62 5.10 -70 8 05/15/2025 08:00 AM
40653 16.1 3.95 0 58 41 61 5.10 -69 8 05/15/2025 07:45 AM
40652 16.1 4.06 5 57 40 61 5.10 -70 8 05/15/2025 07:30 AM
40651 16.1 4.00 25 55 40 61 4.50 -69 9 05/15/2025 07:15 AM
40650 16.1 4.00 7 53 40 64 4.50 -69 8 05/15/2025 07:00 AM
40649 16.0 3.97 6 50 40 59 4.50 -69 8 05/15/2025 06:45 AM
40648 16.0 3.89 0 48 41 55 4.50 -70 8 05/15/2025 06:30 AM